STARLINK-36898, 68002

Orbit data source: Space-Track

STARLINK-36898, 68002 is a payload satellite owned by SpaceX/Seattle (US) in LEO that was launched on Fri, 27 Feb 2026 UTC via an FALCON 9 launch vehicle from the Air Force Eastern Test Range (AFETR). Payload-class satellites include a variety of spacecraft equipped with specific instruments for various scientific and technological missions. These include communications satellites like Starlink; space stations such as the ISS; scientific satellites like the Hubble; Earth observation satellites from companies like Planet Labs, Umbra, and HawkEye 360; GPS; miniature CubeSats for education and research; and military/defense satellites.

Loading next visibility...
Identifier
68002, 2026-039S
Orbit
LEO
Country
Flag of USUS
Related business
Manufacturer
SpaceX/Seattle
Mission
Operational Commercial Communications
Bus & Motor
STARLINK V2MO, Unknown motor
Mass
575 kg wet, ~530 kg dry
Launch date (UTC)
2026-02-27 (2 months ago)
Launch vehicle
FALCON 9
Launch site
Air Force Eastern Test Range (AFETR)
Object type
Payload
Rocket body
Debris
Shape & HBR
Box + 2 Pan, 17.7 m
Radar Cross Section
36.964 m²

Expand to show TLE details & history
Last TLE update: 8 hours ago

TLE from 8 hours ago
0 STARLINK-36898
1 68002U 26039S   26119.38830447  .00018455  00000-0  67840-3 0  9993
2 68002  43.0042 122.9100 0001353 274.3092  85.7605 15.27584920  9457
Epoch: 2026-04-29T09:19Z
TLE epoch observation values (Epoch: 2026-04-29T09:19:09.506Z)
Latitude
-0.00001°
Longitude
125.7704°
Altitude
482.742 km
Speed
7.626 km/s
True Right ascension
08h 11m 38s
True Declination
0° 00' 00"
Sunlit
Object was in daylight at epoch
Visualization orbit readout
Latitude
Unknown
Longitude
Unknown
Altitude
Unknown
Speed
Unknown
Apparent Right ascension
Unknown
Apparent Declination
Unknown
Sunlit
N/A
Visualization observer readout
Local Sidereal Time
01:12:44
Azimuth
Unknown
Elevation
Unknown
Doppler factor
Unknown
Orbital elements
Apogee altitude
485.907 km
Perigee altitude
484.05 km
Semi-major axis
6,863.116 km
Eccentricity
0.00014
Inclination
43.0042°
RAAN
122.91°
Arg. of periapsis
274.3092°
True anomaly
85.77596°
Mean anomaly
85.7605°
Eccentric anomaly
85.76823°
Mean motion
3.81734 °/min
Orbital period
94.31 mins
BSTAR
0.0006784
Loading maneuver chart data...
Computing Atmospheric mass density...
Loading historical data...
Loading historical data...
Loading historical data...
Loading historical data...
Loading historical data...
Loading historical data...
Loading historical data...

Documentation

Showing up to 5 results
|